STARLINK-33659 (63445 NORAD) Tracking and Keplerian Element Data

This shows tracking and keplerian element data for the satellite.

Feedback or suggestion? Click here.




ElementValue
Catalog63445
NameSTARLINK-33659
Epoch Orbit4117
Epoch Day354.15658529
Epoch Year2025
RAAN152.1995
Inclination53.1583
Eccentricity0.0001005
Argument of Perigee92.064
Mean Anonmoly268.0476
Mean Motion15.30204422
Decay Rate0.00014105
L11 63445U 25069N 25354.15658529 .00014105 00000+0 48739-3 0 9998
L22 63445 53.1583 152.1995 0001005 92.0640 268.0476 15.30204422 41177



Live tracking and technical data element details for STARLINK-33659 (NORAD 63445). STARLINK-33659 can be tracked NOW for your location showing map with azimuth and elevation plus other details from your city location.







IsCatalogInMostPopularTable: catalog: 63445, numindb: 2
Update: records affected: 1



GetName: 63445 STARLINK-33659

Hit Count: updated at: Mon, 09 Feb 2026 09:28:50 GMT